Preview of NWS' New Version of Forecast
This preview is not operational and should not be used for support decisions.

Regional Weather Roundup (RWR)

Issued by National Weather Service (NWS)

                            
000
ASUS43 KDTX 181010
RWRMI 
MICHIGAN HOURLY REGIONAL WEATHER ROUNDUP
NATIONAL WEATHER SERVICE DETROIT/PONTIAC MI
600 AM EDT THU APR 18 2019

NOTE: "FAIR" INDICATES FEW OR NO CLOUDS BELOW 12,000 FEET WITH NO
SIGNIFICANT WEATHER AND/OR OBSTRUCTION TO VISIBILITY.

MIZ047>049-052>055-059>063-066>070-074>076-081>083-181100-
SOUTHEAST LOWER MICHIGAN
  
CITY           SKY/WX    TMP DP  RH WIND       PRES   REMARKS
ADRIAN         FAIR      58  50  75 SW10      29.64F                  
ALMA           CLOUDY    58  52  79 S8        29.55R                  
ANN ARBOR      FAIR      57  51  80 S8        29.63S                  
BAD AXE        FAIR      55  49  82 S10       29.55F                  
CARO           FAIR      61  51  71 S9        29.55S                  
DETROIT CITY   MOCLDY    60  49  66 SW10      29.63S                  
DETROIT        CLOUDY    59  50  72 S10       29.64R                  
FLINT          FAIR      62  52  69 SW17G29   29.58S                  
GROSSE ILE     FAIR      53  49  86 S8        29.64S                  
HILLSDALE      FAIR      58  51  76 S8        29.62F                  
HOWELL         CLOUDY    59  50  72 S8        29.60S                  

CITY           SKY/WX    TMP DP  RH WIND       PRES   REMARKS
JACKSON        CLOUDY    60  53  77 S13       29.60F                  
LAMBERTVILLE   CLOUDY    62  52  70 S10       29.65S                  
LANSING        FAIR      61  54  77 S13       29.58S                  
LAPEER         FAIR      61  51  70 SW10G18   29.60R                  
MASON          MOCLDY    60  53  78 SE6       29.59F                  
MONROE         FAIR      60  56  86 S7        29.63F                  
MT. CLEMENS    MOCLDY    56  55  97 S9        29.61S                  
PONTIAC        CLOUDY    61  52  72 SW12G20   29.60S                  
PORT HOPE        N/A     58  50  75 S9G20     29.51F                  
PORT HURON     CLOUDY    61  50  67 S13       29.62S                  
TRI CITIES     FAIR      58  52  80 S10       29.54R                  
MIDLAND        FAIR      58  51  78 S7        29.52R                  
TROY           FAIR      60  50  68 S8        29.64S                  
SAGINAW HB     FAIR      61  54  77 S17       29.54R                  
$$
MIZ043>046-050>051-056>058-064>065-071>073-077>080-181100-
SOUTHWEST LOWER MICHIGAN
  
CITY           SKY/WX    TMP DP  RH WIND       PRES   REMARKS
BATTLE CREEK   MOCLDY    62  55  77 SW15      29.59S                  
BENTON HARBOR  FAIR      65  57  75 SW9G21    29.56S                  
BIG RAPIDS     CLOUDY    60  55  86 SW5       29.51R                  
COLDWATER      MOCLDY    62  56  82 SW8       29.62S                  
FREMONT        CLOUDY    56  53  89 SW9       29.51F                  
HOLLAND        CLOUDY    63  57  81 SW20G33   29.54F                  
GRAND RAPIDS   CLOUDY    63  55  75 SW12      29.54R                  
IONIA          CLOUDY    59  51  74 S12       29.55S                  
KALAMAZOO      FAIR      63  56  78 S12       29.58S                  
LUDINGTON      CLOUDY    47  46  94 W3        29.49F FOG              
MARSHALL       CLOUDY    62  56  82 S9        29.59S                  
MOUNT PLEASANT CLOUDY    57  52  82 S9        29.52R                  
MUSKEGON       CLOUDY    50  46  86 SW15      29.52F                  
SOUTH HAVEN    CLOUDY    65  57  76 SW15G22   29.55F                  
$$
MIZ016>042-181100-
NORTHERN LOWER MICHIGAN
  
CITY           SKY/WX    TMP DP  RH WIND       PRES   REMARKS
ALPENA         MOCLDY    44  43  96 S3        29.47S FOG              
BEAVER ISLAND  CLOUDY    37  37  99 E3        29.45R FOG              
BELLAIRE       CLOUDY    55  52  88 SW6       29.45R                  
CADILLAC       CLOUDY    56  55  94 SW8       29.49R                  
CHARLEVOIX     CLOUDY    47  45  93 SW9       29.48R                  
FRANKFORT      CLOUDY    44  39  84 S3        29.50R HAZE             
GAYLORD        CLOUDY    51  50  96 SW12      29.44S                  
GRAYLING       CLOUDY    54  52  94 SW10      29.46S                  
HARBOR SPRINGS CLOUDY    46  45  96 W8G21     29.44R                  
HOUGHTON LAKE  CLOUDY    52  49  89 SW9       29.49R                  
MANISTEE       CLOUDY    49  48  97 W12       29.50R FOG              
OSCODA         FAIR      51  50  96 S7        29.49S                  
PELLSTON       CLOUDY    43  42  97 N7        29.44R FOG              
ROGERS CITY    CLOUDY    46  44  94 S9        29.45F                  
TRAVERSE CITY  CLOUDY    55  51  86 SW9G25    29.46R                  
$$
MIZ007>008-015-181100-
EASTERN UPPER MICHIGAN
  
CITY           SKY/WX    TMP DP  RH WIND       PRES   REMARKS
KINROSS        LGT RAIN  38  37  97 E10       29.45F FOG     WCI  31  
MACKINAC ISLAN CLOUDY    36  36 100 E8G16     29.44S FOG     WCI  29  
NEWBERRY       CLOUDY    37  35  91 NE5       29.44S FOG     WCI  34  
S. S. MARIE    CLOUDY    41  40  96 E6        29.45F FOG              
MUNISING         N/A     34  33  96 N8        29.48S WCI  27          
$$
MIZ004>006-011>014-085-181100-
CENTRAL UPPER MICHIGAN
  
CITY           SKY/WX    TMP DP  RH WIND       PRES   REMARKS
MANISTIQUE     CLOUDY    40  35  80 N5        29.45S HAZE             
ESCANABA       CLOUDY    37  35  92 NW6       29.51R WCI  32          
MENOMINEE      CLOUDY    39  38  96 NW5       29.54R FOG              
SAWYER-GWINN   SNOW      35  34  96 N15G21    29.48F VSB 1/4 WCI  25  
$$
MIZ001>003-009>011-084-181100-
WESTERN UPPER MICHIGAN
  
CITY           SKY/WX    TMP DP  RH WIND       PRES   REMARKS
IRON MOUNTAIN  CLOUDY    35  33  92 NW9       29.51R WCI  28          
HOUGHTON       CLOUDY    36  32  85 NE15G24   29.59F WCI  27          
COPPER HARBOR    N/A     36  33  89 NE14      29.60F WCI  27          
IRONWOOD       MIX PCPN  32  32 100 NE8G17    29.63F FOG     WCI  25  
$$

ABBREVIATIONS USED IN REMARKS
   TC - TEMPERATURE IN CELSIUS
  WCI - WIND CHILL INDEX
   HX - HEAT INDEX
  VSB - VISIBILITY